When you browse on this site, cookies collect data to enhance your experience and personalize the content and advertising you see.
Visit our Privacy Policy to learn more. By continuing to use the site, you agree to this use of cookies and data.
  • In Netherlands
  • List of Countries
  • For 7 days
  • Water Temperature
  • Weather Map
  • Weather Widgets
  • user-avatar
    Login

    Hourly Weather Pamporovo

    Today, 21 November, Thursday

    Time Temperature Precipitation Wind Pressure Humidity
    00:00 +5°C° 0.9 mm 0 mps 625 mmHg 97%
    01:00 +5°C° 0.9 mm 0 mps 625 mmHg 97%
    02:00 +5°C° 0 mm 0 mps 625 mmHg 97%
    03:00 +5°C° 0.4 mm 0 mps 624 mmHg 97%
    04:00 +5°C° 0.4 mm 0 mps 624 mmHg 97%
    05:00 +5°C° 0.4 mm 0 mps 624 mmHg 97%
    06:00 +5°C° 0.4 mm 0 mps 624 mmHg 97%
    07:00 +6°C° 0.4 mm 1 mps 624 mmHg 98%
    08:00 +6°C° 0.4 mm 1 mps 624 mmHg 98%
    09:00 +6°C° 1.3 mm 1 mps 624 mmHg 97%
    10:00 +6°C° 1.3 mm 1 mps 624 mmHg 97%
    11:00 +6°C° 1.3 mm 1 mps 625 mmHg 97%
    12:00 +6°C° 1.4 mm 1 mps 624 mmHg 97%
    13:00 +6°C° 1.4 mm 1 mps 624 mmHg 97%
    14:00 +6°C° 1.4 mm 1 mps 623 mmHg 97%
    15:00 +6°C° 0.6 mm 1 mps 623 mmHg 97%
    16:00 +6°C° 0.6 mm 1 mps 623 mmHg 97%
    17:00 +6°C° 0.6 mm 1 mps 623 mmHg 98%
    18:00 +6°C° 0.3 mm 1 mps 623 mmHg 97%
    19:00 +6°C° 0.3 mm 1 mps 623 mmHg 97%
    20:00 +6°C° 0.3 mm 1 mps 623 mmHg 97%
    21:00 +6°C° 0.2 mm 1 mps 623 mmHg 97%
    22:00 +6°C° 0.2 mm 1 mps 623 mmHg 97%
    23:00 +5°C° 0.2 mm 1 mps 623 mmHg 97%

    Tomorrow, 22 November, Friday

    Time Temperature Precipitation Wind Pressure Humidity
    00:00 +5°C° 0.4 mm 1 mps 623 mmHg 97%
    01:00 +5°C° 0.4 mm 1 mps 623 mmHg 97%
    02:00 +4°C° 0.4 mm 2 mps 623 mmHg 97%
    03:00 +4°C° 2.3 mm 2 mps 623 mmHg 97%
    04:00 +4°C° 2.3 mm 2 mps 623 mmHg 97%
    05:00 +3°C° 2.3 mm 2 mps 622 mmHg 97%
    06:00 +3°C° 3.6 mm 2 mps 623 mmHg 97%
    07:00 +3°C° 3.6 mm 2 mps 623 mmHg 96%
    08:00 +2°C° 3.6 mm 2 mps 623 mmHg 96%
    09:00 +2°C° 3.3 mm 2 mps 623 mmHg 96%
    10:00 +1°C° 3.3 mm 2 mps 623 mmHg 96%
    11:00 +2°C° 3.3 mm 1 mps 623 mmHg 96%
    12:00 +1°C° 2.7 mm 1 mps 623 mmHg 96%
    13:00 +1°C° 2.7 mm 1 mps 623 mmHg 96%
    14:00 +1°C° 2.7 mm 1 mps 622 mmHg 95%
    15:00 +1°C° 0.9 mm 1 mps 623 mmHg 95%
    16:00 +1°C° 0.9 mm 1 mps 623 mmHg 95%
    17:00 +1°C° 0.9 mm 1 mps 623 mmHg 95%
    18:00 +1°C° 0.1 mm 1 mps 623 mmHg 95%
    19:00 +1°C° 0.1 mm 1 mps 624 mmHg 95%
    20:00 +1°C° 0.1 mm 1 mps 624 mmHg 96%
    21:00 +1°C° 0 mm 1 mps 624 mmHg 96%
    22:00 +1°C° 0 mm 1 mps 624 mmHg 96%
    23:00 +2°C° 0 mm 1 mps 625 mmHg 96%

    Day after tomorrow, 23 November, Saturday

    Time Temperature Precipitation Wind Pressure Humidity
    00:00 +1°C° 0 mm 1 mps 625 mmHg 96%
    01:00 +1°C° 0 mm 1 mps 625 mmHg 96%
    02:00 +1°C° 0 mm 1 mps 625 mmHg 96%
    03:00 +1°C° 0 mm 1 mps 625 mmHg 96%
    04:00 0°C° 0 mm 0 mps 624 mmHg 96%
    05:00 0°C° 0 mm 0 mps 624 mmHg 96%
    06:00 0°C° 0 mm 0 mps 624 mmHg 96%
    07:00 0°C° 0 mm 0 mps 625 mmHg 95%
    08:00 0°C° 0 mm 0 mps 625 mmHg 95%
    09:00 +2°C° 0 mm 1 mps 625 mmHg 91%
    10:00 +3°C° 0 mm 1 mps 626 mmHg 88%
    11:00 +4°C° 0 mm 1 mps 626 mmHg 84%
    12:00 +4°C° 0 mm 1 mps 626 mmHg 84%
    13:00 +4°C° 0 mm 1 mps 626 mmHg 85%
    14:00 +4°C° 0 mm 1 mps 625 mmHg 85%
    15:00 +3°C° 0 mm 1 mps 625 mmHg 87%
    16:00 +3°C° 0 mm 1 mps 625 mmHg 90%
    17:00 +2°C° 0 mm 1 mps 625 mmHg 93%
    18:00 +2°C° 0 mm 1 mps 625 mmHg 94%
    19:00 +2°C° 0 mm 1 mps 625 mmHg 94%
    20:00 0°C° 0 mm 0 mps 625 mmHg 95%
    21:00 0°C° 0 mm 0 mps 625 mmHg 95%
    22:00 0°C° 0 mm 0 mps 625 mmHg 95%
    23:00 0°C° 0 mm 0 mps 625 mmHg 94%

    24 November, Sunday

    Time Temperature Precipitation Wind Pressure Humidity
    00:00 0°C° 0 mm 0 mps 625 mmHg 94%
    01:00 0°C° 0 mm 0 mps 625 mmHg 94%
    02:00 -1°C° 0 mm 0 mps 624 mmHg 93%
    03:00 -1°C° 0 mm 0 mps 624 mmHg 93%
    04:00 -1°C° 0 mm 0 mps 624 mmHg 93%
    05:00 -1°C° 0 mm 0 mps 624 mmHg 92%
    06:00 -1°C° 0 mm 0 mps 624 mmHg 92%
    07:00 -1°C° 0 mm 0 mps 624 mmHg 91%
    08:00 -1°C° 0 mm 0 mps 624 mmHg 91%
    09:00 +1°C° 0 mm 0 mps 624 mmHg 86%
    10:00 +3°C° 0 mm 1 mps 625 mmHg 82%
    11:00 +5°C° 0 mm 1 mps 626 mmHg 77%
    12:00 +5°C° 0 mm 1 mps 626 mmHg 78%
    13:00 +5°C° 0 mm 1 mps 625 mmHg 78%
    14:00 +5°C° 0 mm 1 mps 625 mmHg 78%
    15:00 +4°C° 0 mm 1 mps 625 mmHg 82%
    16:00 +4°C° 0 mm 1 mps 624 mmHg 87%
    17:00 +3°C° 0 mm 1 mps 624 mmHg 91%
    18:00 +3°C° 0 mm 1 mps 624 mmHg 92%
    19:00 +2°C° 0 mm 1 mps 624 mmHg 94%
    20:00 +1°C° 0 mm 1 mps 624 mmHg 95%
    21:00 +1°C° 0 mm 1 mps 624 mmHg 94%
    22:00 +1°C° 0 mm 1 mps 624 mmHg 94%
    23:00 +1°C° 0 mm 1 mps 624 mmHg 93%

    25 November, Monday

    Time Temperature Precipitation Wind Pressure Humidity
    00:00 +1°C° 0 mm 1 mps 623 mmHg 93%
    01:00 +1°C° 0 mm 1 mps 623 mmHg 93%
    02:00 +1°C° 0 mm 1 mps 623 mmHg 92%
    03:00 0°C° 0 mm 1 mps 623 mmHg 92%
    04:00 0°C° 0 mm 1 mps 622 mmHg 92%
    05:00 0°C° 0 mm 1 mps 622 mmHg 92%
    06:00 0°C° 0 mm 1 mps 622 mmHg 92%
    07:00 0°C° 0 mm 1 mps 622 mmHg 92%
    08:00 0°C° 0 mm 1 mps 622 mmHg 92%
    09:00 +2°C° 0 mm 1 mps 623 mmHg 88%
    10:00 +3°C° 0 mm 1 mps 623 mmHg 84%
    11:00 +4°C° 0 mm 1 mps 624 mmHg 80%
    12:00 +5°C° 0 mm 1 mps 624 mmHg 79%
    13:00 +5°C° 0 mm 1 mps 623 mmHg 78%
    14:00 +5°C° 0 mm 1 mps 623 mmHg 77%
    15:00 +4°C° 0 mm 1 mps 623 mmHg 82%
    16:00 +4°C° 0 mm 1 mps 622 mmHg 87%
    17:00 +3°C° 0 mm 1 mps 622 mmHg 92%
    18:00 +2°C° 0 mm 1 mps 622 mmHg 91%
    19:00 +2°C° 0 mm 1 mps 622 mmHg 91%
    20:00 +2°C° 0 mm 1 mps 622 mmHg 91%
    21:00 +2°C° 0 mm 1 mps 622 mmHg 91%
    22:00 +2°C° 0 mm 1 mps 622 mmHg 92%
    23:00 +1°C° 0 mm 1 mps 622 mmHg 92%

    26 November, Tuesday

    Time Temperature Precipitation Wind Pressure Humidity
    00:00 +1°C° 0 mm 1 mps 622 mmHg 93%
    01:00 +1°C° 0 mm 1 mps 622 mmHg 94%
    02:00 +2°C° 0 mm 1 mps 622 mmHg 94%
    03:00 +1°C° 0 mm 1 mps 622 mmHg 94%
    04:00 +1°C° 0 mm 1 mps 622 mmHg 94%
    05:00 +1°C° 0 mm 1 mps 622 mmHg 93%
    06:00 +1°C° 0 mm 1 mps 622 mmHg 92%
    07:00 +1°C° 0 mm 1 mps 622 mmHg 91%
    08:00 +1°C° 0 mm 1 mps 622 mmHg 90%
    09:00 +2°C° 0 mm 1 mps 623 mmHg 84%
    10:00 +4°C° 0 mm 1 mps 624 mmHg 79%
    11:00 +5°C° 0 mm 1 mps 624 mmHg 73%
    12:00 +5°C° 0 mm 1 mps 624 mmHg 72%
    13:00 +6°C° 0 mm 1 mps 624 mmHg 70%
    14:00 +6°C° 0 mm 1 mps 624 mmHg 69%
    15:00 +5°C° 0 mm 1 mps 623 mmHg 76%
    16:00 +4°C° 0 mm 1 mps 623 mmHg 82%
    17:00 +2°C° 0 mm 0 mps 623 mmHg 89%
    18:00 +1°C° 0 mm 0 mps 623 mmHg 90%
    19:00 +1°C° 0 mm 0 mps 623 mmHg 91%
    20:00 0°C° 0 mm 0 mps 623 mmHg 93%
    21:00 0°C° 0 mm 0 mps 623 mmHg 93%
    22:00 0°C° 0 mm 0 mps 623 mmHg 92%
    23:00 0°C° 0 mm 0 mps 623 mmHg 92%
    Show more